[[{"header":{"parameterUnit":"m.s-1","parameterCategory":1,"la1":30.2991,"la2":30.254,"lo1":-89.0895,"lo2":-89.0444,"dy":0.0017,"dx":0.0017,"nx":28,"ny":28,"refTime":"2023-09-17T03:00:00:Z","depth":0,"parameterNumber":2,"parameterNumberName":"U-component_of_WINDS"},"data":[0,0,0,0,0,0,0,0,0,0,0,0,0,0,0,0,0,0,0,0,0,0,0,0,0,0,0,0,0,0,0,0,0,0,0,0,0,0,0,0,0,0,0,0,0,0,0,0,0,0,0,0,0,0,0,0,0,0,-2.556,-2.556,0,-2.5603,-2.5604,-2.5604,-2.548,-2.5476,-2.5472,-2.5468,-2.5515,-2.5519,-2.5524,0,0,0,0,0,0,0,0,0,0,0,0,0,-2.5368,-2.5373,-2.556,-2.556,-2.5561,-2.5603,-2.5604,-2.5604,-2.548,-2.5476,-2.5471,-2.5467,-2.5513,-2.5519,-2.5524,0,0,0,0,0,0,0,0,0,0,0,0,0,-2.5436,-2.5374,-2.556,-2.5504,-2.5499,-2.5603,-2.5604,-2.5605,-2.5481,-2.5476,-2.547,-2.5464,-2.5511,-2.5518,-2.5525,-2.5685,0,0,-2.5547,-2.555,0,0,0,0,0,0,0,0,-2.5432,-2.5443,-2.5512,-2.5508,-2.5503,-2.553,-2.5553,-2.5632,-2.5483,-2.5488,-2.5468,-2.5462,-2.5525,-2.553,-2.5551,-2.5687,-2.5689,-2.5548,-2.5552,-2.5555,-2.5557,0,0,0,0,0,0,0,-2.5428,-2.544,-2.5577,-2.5513,-2.5508,-2.5477,-2.548,-2.5568,-2.5538,-2.5487,-2.5478,-2.5485,-2.5521,-2.5545,-2.5551,-2.569,-2.5548,-2.5554,-2.5559,-2.5561,-2.5959,-2.5965,0,0,0,0,0,0,-2.543,-2.5437,-2.5575,-2.5578,-2.5453,-2.5485,-2.5488,-2.5527,-2.5537,-2.5533,-2.549,-2.5479,-2.5535,-2.5543,-2.5552,-2.5741,-2.5555,-2.5562,-2.5566,-2.5953,-2.596,-2.5967,0,0,0,0,0,0,-2.5427,-2.5444,-2.5574,-2.5505,-2.552,-2.5494,-2.5539,-2.5531,-2.5554,-2.5539,-2.5533,-2.552,-2.5531,-2.5542,-2.5653,-2.5741,-2.5565,-2.5572,-2.5946,-2.5955,-2.5964,-2.6119,0,0,0,0,0,0,-2.5422,-2.5443,-2.5504,-2.5508,-2.5524,-2.5674,-2.5544,-2.5536,-2.5567,-2.5553,-2.5565,-2.5562,-2.5527,-2.5643,-2.566,-2.5747,-2.5578,-2.5938,-2.595,-2.5961,-2.6106,-2.6133,-2.6155,0,0,0,0,0,-2.5415,-2.5546,-2.5508,-2.5525,-2.5599,-2.568,-2.5689,-2.5646,-2.5575,-2.5636,-2.5625,-2.5561,-2.5728,-2.5655,-2.5674,-2.5765,-2.5932,-2.5946,-2.596,-2.6095,-2.6127,-2.6155,0,0,0,0,0,0,-2.5555,-2.5546,-2.5503,-2.5639,-2.5661,-2.5658,-2.5734,-2.5682,-2.5725,-2.571,-2.5655,-2.5659,-2.578,-2.5783,-2.5702,-2.5919,-2.5818,-2.5836,-2.5914,-2.5945,-2.5969,-2.5967,-2.5584,0,0,0,0,0,-2.5601,-2.5667,-2.5655,-2.5777,-2.579,-2.5761,-2.5794,-2.5759,-2.5779,-2.5788,-2.5786,-2.5809,-2.5865,-2.5905,-2.5956,-2.6105,-2.6106,-2.6176,-2.6201,-2.6221,-2.6238,-2.6317,-2.6348,-2.6013,-2.6013,-2.6013,0,0,-2.5698,-2.5701,-2.5747,-2.5805,-2.5818,-2.5887,-2.5769,-2.5848,-2.5899,-2.58,-2.5905,-2.5904,-2.5925,-2.6055,-2.6113,-2.6061,-2.633,-2.6239,-2.6255,-2.6261,-2.6334,-2.6366,-2.6394,-2.6023,-2.6021,-2.6019,0,0,-2.5911,-2.592,-2.6022,-2.6037,-2.6057,-2.6036,-2.6061,-2.6066,-2.6061,-2.6165,-2.6092,-2.6151,-2.6251,-2.6269,-2.6292,-2.6509,-2.6452,-2.6527,-2.6657,-2.6734,-2.6761,-2.6784,-2.6863,-2.6891,-2.6544,-2.6545,-2.6545,0,-2.603,-2.6132,-2.6081,-2.6165,-2.6193,-2.6105,-2.6208,-2.6224,-2.6261,-2.6283,-2.6224,-2.6347,-2.6355,-2.6488,-2.6541,-2.6562,-2.6588,-2.6527,-2.6761,-2.6784,-2.6804,-2.6879,-2.6909,-2.6554,-2.6553,-2.6552,-2.6551,0,-2.6277,-2.6348,-2.6428,-2.6465,-2.6501,-2.6595,-2.6558,-2.6601,-2.6562,-2.6547,-2.6654,-2.666,-2.6711,-2.674,-2.6703,-2.6868,-2.6835,-2.677,-2.6667,-2.6846,-2.6916,-2.6944,-2.6567,-2.6563,-2.6561,-2.6558,0,0,-2.6582,-2.6588,-2.6619,-2.6634,-2.6649,-2.6703,-2.6791,-2.6841,-2.6879,-2.6906,-2.698,-2.7065,-2.7004,-2.7029,-2.6993,-2.7061,-2.7234,-2.6986,-2.6986,-2.7034,-2.7417,-2.7468,-2.7501,-2.7194,-2.7199,-2.7204,-2.7415,0,-2.6793,-2.6945,-2.6901,-2.7053,-2.7119,-2.7035,-2.7112,-2.7129,-2.7117,-2.7171,-2.7157,-2.7219,-2.7133,-2.7148,-2.721,-2.72,-2.731,-2.7183,-2.7263,-2.7267,-2.7263,-2.7537,-2.7592,-2.7791,-2.7442,-2.7446,-2.7449,0,-2.706,-2.7097,-2.7257,-2.7259,-2.7285,-2.7355,-2.7397,-2.7449,-2.7466,-2.7452,-2.748,-2.743,-2.7516,-2.7411,-2.7529,-2.7444,-2.7473,-2.7473,-2.7479,-2.7487,-2.7371,-2.7554,-2.7854,-2.7885,-2.7491,-2.7488,-2.7485,0,-2.7269,-2.7358,-2.7465,-2.748,-2.7486,-2.7538,-2.7542,-2.7554,-2.7586,-2.7622,-2.7642,-2.7688,-2.7714,-2.775,-2.7713,-2.7639,-2.7838,-2.7729,-2.783,-2.7831,-2.7878,-2.7876,-2.8188,-2.7893,-2.7893,-2.7892,-2.7892,0,-2.751,-2.7612,-2.7559,-2.7625,-2.7735,-2.7683,-2.7793,-2.7788,-2.7799,-2.7862,-2.7792,-2.7853,-2.7799,-2.7855,-2.7826,-2.7929,-2.7941,-2.7933,-2.7925,-2.7941,-2.7942,-2.7961,-2.7947,-2.79,-2.7898,-2.7897,-2.7896,0,-2.7764,-2.7732,-2.7843,-2.7839,-2.784,-2.7922,-2.7918,-2.7978,-2.796,-2.8041,-2.8057,-2.8028,-2.8091,-2.8056,-2.812,-2.8101,-2.8235,-2.8207,-2.823,-2.8223,-2.8326,-2.8318,-2.8664,-2.8707,-2.8383,-2.8386,-2.8388,0,-2.7921,-2.7997,-2.8,-2.8037,-2.8047,-2.8108,-2.814,-2.809,-2.8127,-2.8151,-2.8209,-2.8265,-2.8307,-2.841,-2.8395,-2.8444,-2.8417,-2.8535,-2.8424,-2.8438,-2.8421,-2.8418,-2.8426,-2.8558,-2.8562,-2.8565,-2.8568,0,-2.8205,-2.8185,-2.8234,-2.8278,-2.8318,-2.835,-2.8376,-2.8411,-2.8361,-2.8406,-2.8468,-2.8501,-2.8565,-2.8622,-2.8663,-2.8667,-2.8611,-2.8602,-2.8628,-2.8647,-2.8658,-2.8655,-2.8293,-2.8595,-2.8593,-2.859,-2.8589,-2.8588,-2.8416,-2.8479,-2.8492,-2.8548,-2.8562,-2.8588,-2.8645,-2.8633,-2.8684,-2.8732,-2.8699,-2.8773,-2.8787,-2.8836,-2.8848,-2.8904,-2.8857,-2.8895,-2.8905,-2.8916,-2.893,-2.8647,-2.8911,-2.8911,-2.891,-2.8909,-2.8908,0,-2.8698,-2.8701,-2.8753,-2.8792,-2.8836,-2.8776,-2.8801,-2.8843,-2.8909,-2.8926,-2.8969,-2.904,-2.9094,-2.9082,-2.9131,-2.9179,-2.9154,-2.9193,-2.919,-2.9193,-2.8969,-2.8942,-2.9213,-2.9213,-2.9213,-2.9212,-2.9212,-2.9212,-2.885,-2.8953,-2.8935,-2.9045,-2.9046,-2.9118,-2.9138,-2.9161,-2.9174,-2.9257,-2.9301,-2.9293,-2.9299,-2.9347,-2.9393,-2.9388,-2.941,-2.946,-2.9446,-2.9238,-2.9208,-2.918,-2.9154,-2.9465,-2.9465,-2.9665,-2.9667,-2.9668]},{"header":{"parameterUnit":"m.s-1","parameterCategory":1,"la1":30.2991,"la2":30.254,"lo1":-89.0895,"lo2":-89.0444,"dy":0.0017,"dx":0.0017,"nx":28,"ny":28,"refTime":"2023-09-17T03:00:00:Z","depth":0,"parameterNumber":3,"parameterNumberName":"V-component_of_WINDS"},"data":[0,0,0,0,0,0,0,0,0,0,0,0,0,0,0,0,0,0,0,0,0,0,0,0,0,0,0,0,0,0,0,0,0,0,0,0,0,0,0,0,0,0,0,0,0,0,0,0,0,0,0,0,0,0,0,0,0,0,-3.6663,-3.6663,0,-3.674,-3.6741,-3.6742,-3.6679,-3.6676,-3.6673,-3.6671,-3.6749,-3.6753,-3.6758,0,0,0,0,0,0,0,0,0,0,0,0,0,-3.6457,-3.6461,-3.6663,-3.6664,-3.6665,-3.674,-3.6741,-3.6742,-3.6679,-3.6676,-3.6673,-3.667,-3.6747,-3.6753,-3.6758,0,0,0,0,0,0,0,0,0,0,0,0,0,-3.6542,-3.6463,-3.6662,-3.6642,-3.6641,-3.674,-3.6741,-3.6743,-3.668,-3.6676,-3.6672,-3.6668,-3.6746,-3.6752,-3.6759,-3.6882,0,0,-3.678,-3.6783,0,0,0,0,0,0,0,0,-3.6537,-3.6549,-3.6644,-3.6644,-3.6643,-3.6696,-3.6697,-3.6789,-3.6681,-3.6665,-3.6671,-3.6666,-3.6734,-3.6742,-3.6765,-3.6885,-3.6889,-3.6781,-3.6785,-3.6788,-3.679,0,0,0,0,0,0,0,-3.6531,-3.6546,-3.6693,-3.6646,-3.6645,-3.6628,-3.6636,-3.6715,-3.6721,-3.6666,-3.6662,-3.6672,-3.6733,-3.6759,-3.6767,-3.689,-3.678,-3.6787,-3.6791,-3.6793,-3.7114,-3.7118,0,0,0,0,0,0,-3.6528,-3.6541,-3.6691,-3.6696,-3.6579,-3.6635,-3.6644,-3.6683,-3.672,-3.6722,-3.6675,-3.6669,-3.6749,-3.6759,-3.6769,-3.6915,-3.6788,-3.6794,-3.6798,-3.711,-3.7115,-3.712,0,0,0,0,0,0,-3.6524,-3.6542,-3.6688,-3.6617,-3.6635,-3.6643,-3.6687,-3.6686,-3.6712,-3.6727,-3.6728,-3.67,-3.6746,-3.6759,-3.6854,-3.6917,-3.6797,-3.6803,-3.7104,-3.7111,-3.7117,-3.7208,0,0,0,0,0,0,-3.6518,-3.6541,-3.6588,-3.6619,-3.6639,-3.6772,-3.6691,-3.6691,-3.6724,-3.6716,-3.6751,-3.6753,-3.6744,-3.6844,-3.6861,-3.6924,-3.6809,-3.7099,-3.7107,-3.7115,-3.7199,-3.7217,-3.7232,0,0,0,0,0,-3.6511,-3.661,-3.659,-3.6609,-3.6698,-3.6776,-3.6787,-3.6776,-3.6729,-3.6777,-3.6786,-3.6752,-3.6907,-3.6855,-3.6873,-3.6939,-3.7095,-3.7105,-3.7115,-3.7192,-3.7213,-3.7231,0,0,0,0,0,0,-3.6585,-3.6614,-3.6592,-3.6705,-3.6739,-3.6765,-3.6824,-3.6799,-3.6846,-3.6837,-3.682,-3.6828,-3.6928,-3.6943,-3.6884,-3.7059,-3.6993,-3.7008,-3.7046,-3.7066,-3.7082,-3.7077,-3.6815,0,0,0,0,0,-3.6615,-3.6677,-3.6698,-3.6795,-3.6813,-3.6816,-3.6849,-3.6838,-3.6872,-3.6886,-3.6902,-3.6936,-3.6993,-3.703,-3.7083,-3.7201,-3.7207,-3.7255,-3.7272,-3.7285,-3.7297,-3.736,-3.7382,-3.7152,-3.7152,-3.7152,0,0,-3.6677,-3.67,-3.6739,-3.681,-3.6835,-3.6899,-3.6828,-3.6899,-3.6946,-3.6896,-3.6987,-3.7,-3.7037,-3.7144,-3.7192,-3.7159,-3.7362,-3.7297,-3.7308,-3.7313,-3.7373,-3.7394,-3.7414,-3.7159,-3.7158,-3.7157,0,0,-3.6821,-3.6845,-3.6928,-3.6955,-3.6994,-3.6995,-3.7015,-3.7046,-3.7053,-3.7144,-3.7108,-3.7163,-3.7261,-3.7289,-3.7315,-3.7471,-3.744,-3.7488,-3.7573,-3.7634,-3.7652,-3.7668,-3.7724,-3.7744,-3.75,-3.7501,-3.7501,0,-3.6893,-3.6988,-3.6974,-3.7048,-3.7079,-3.7038,-3.7122,-3.7148,-3.7202,-3.7225,-3.7188,-3.7309,-3.7331,-3.7444,-3.7482,-3.7505,-3.7527,-3.7484,-3.7651,-3.7667,-3.7682,-3.7734,-3.7755,-3.7506,-3.7506,-3.7505,-3.7504,0,-3.7074,-3.714,-3.7203,-3.7256,-3.7295,-3.7374,-3.7371,-3.7412,-3.7397,-3.7402,-3.7495,-3.752,-3.7577,-3.7602,-3.7588,-3.7713,-3.7692,-3.7653,-3.7587,-3.7709,-3.7758,-3.7778,-3.7514,-3.7512,-3.751,-3.7509,0,0,-3.7268,-3.7313,-3.7336,-3.736,-3.7399,-3.745,-3.7526,-3.7582,-3.7618,-3.7656,-3.7719,-3.7803,-3.7768,-3.7798,-3.7787,-3.7841,-3.7962,-3.7795,-3.7796,-3.7825,-3.8101,-3.813,-3.8153,-3.7942,-3.7946,-3.7949,-3.8098,0,-3.7414,-3.7547,-3.7537,-3.7662,-3.7723,-3.7685,-3.7751,-3.7782,-3.7789,-3.7841,-3.7848,-3.7908,-3.7857,-3.7875,-3.7927,-3.7936,-3.8017,-3.7925,-3.8,-3.8003,-3.7992,-3.8179,-3.8209,-3.8349,-3.8117,-3.812,-3.8122,0,-3.7603,-3.7648,-3.778,-3.781,-3.7835,-3.7895,-3.7946,-3.7996,-3.8031,-3.8032,-3.8066,-3.8045,-3.8121,-3.8053,-3.8157,-3.8095,-3.8125,-3.8135,-3.814,-3.8146,-3.807,-3.819,-3.8393,-3.8414,-3.8152,-3.815,-3.8148,0,-3.7731,-3.7825,-3.7916,-3.7937,-3.7975,-3.8018,-3.8035,-3.8066,-3.81,-3.8144,-3.8166,-3.8219,-3.8247,-3.8288,-3.8282,-3.8233,-3.8388,-3.8319,-3.839,-3.8391,-3.8425,-3.8423,-3.8635,-3.8444,-3.8444,-3.8444,-3.8443,0,-3.7896,-3.7978,-3.7974,-3.803,-3.8121,-3.8108,-3.8197,-3.821,-3.8237,-3.8294,-3.8264,-3.8318,-3.8307,-3.8361,-3.8356,-3.8443,-3.8456,-3.8459,-3.8457,-3.8462,-3.8461,-3.8481,-3.8471,-3.8449,-3.8448,-3.8447,-3.8446,0,-3.8054,-3.8055,-3.8152,-3.8179,-3.8188,-3.8254,-3.8277,-3.833,-3.8334,-3.8407,-3.8423,-3.8429,-3.8491,-3.8489,-3.8559,-3.8556,-3.8663,-3.8649,-3.8652,-3.8649,-3.872,-3.8714,-3.8953,-3.8983,-3.8773,-3.8775,-3.8776,0,-3.8159,-3.8221,-3.8256,-3.8292,-3.8313,-3.8372,-3.8407,-3.8396,-3.8434,-3.8478,-3.8525,-3.8584,-3.8631,-3.8731,-3.8742,-3.8795,-3.8783,-3.8863,-3.8791,-3.8794,-3.8784,-3.878,-3.8786,-3.8877,-3.8879,-3.8881,-3.8883,0,-3.8345,-3.8343,-3.8395,-3.8447,-3.849,-3.8531,-3.8568,-3.8599,-3.8593,-3.8636,-3.87,-3.8736,-3.8807,-3.8866,-3.8918,-3.8935,-3.8908,-3.8906,-3.8925,-3.8931,-3.8929,-3.8931,-3.869,-3.89,-3.8898,-3.8897,-3.8896,-3.8896,-3.848,-3.8534,-3.8566,-3.8625,-3.8652,-3.8688,-3.8738,-3.8749,-3.8802,-3.886,-3.885,-3.8921,-3.8953,-3.9019,-3.9041,-3.9095,-3.9067,-3.9095,-3.9102,-3.9109,-3.9117,-3.8921,-3.9105,-3.9104,-3.9104,-3.9103,-3.9103,0,-3.8665,-3.8684,-3.8738,-3.8791,-3.8838,-3.8809,-3.8848,-3.8889,-3.8952,-3.8984,-3.9031,-3.9103,-3.916,-3.9176,-3.923,-3.9271,-3.926,-3.9286,-3.9283,-3.9287,-3.914,-3.9117,-3.9294,-3.9294,-3.9294,-3.9294,-3.9294,-3.9294,-3.8766,-3.8855,-3.8856,-3.8958,-3.8976,-3.9046,-3.9071,-3.9103,-3.9129,-3.9212,-3.9259,-3.9269,-3.9294,-3.9351,-3.9401,-3.9404,-3.9426,-3.9457,-3.9455,-3.9317,-3.9297,-3.9279,-3.9258,-3.9461,-3.9462,-3.9598,-3.9599,-3.96]}]]